Location: Newark
(34.1765°N, 84.7452°W)
Time: 06:06:44
(UTC+00:00)

Envisat - Visible Passes

Search period start: 09 December 2019 00:00
Search period end: 19 December 2019 00:00
Orbit: 764 x 766 km, 98.1° (Epoch: 08 December)

Date Brightness Start Highest point End Pass type
(mag) Time Alt. Az. Time Alt. Az. Time Alt. Az.
09 Dec 4.1 12:02:21 10° NNE 12:07:17 50° E 12:12:11 10° S visible
09 Dec 3.3 23:13:09 10° SE 23:17:58 45° ENE 23:22:47 10° N visible
10 Dec 5.8 00:53:54 10° SW 00:57:09 17° W 01:00:24 10° NW visible
10 Dec 5.8 11:26:33 10° NE 11:30:21 21° E 11:34:07 10° SE visible
11 Dec 4.3 00:15:25 10° SSW 00:20:10 40° W 00:24:57 10° NNW visible
11 Dec 2.9 23:38:18 10° SSE 23:43:22 83° ENE 23:48:28 10° N visible
12 Dec 4.7 11:51:15 10° NNE 11:55:58 38° E 12:00:41 10° SSE visible
12 Dec 3.6 23:02:11 10° SE 23:06:45 35° ENE 23:11:19 10° N visible
13 Dec 5.4 00:41:55 10° SW 00:45:47 22° W 00:49:41 10° NW visible
13 Dec 6.0 11:15:53 10° NE 11:18:59 16° E 11:22:04 10° SE visible
14 Dec 3.8 00:03:56 10° S 00:08:51 53° W 00:13:49 10° NNW visible
14 Dec 2.9 23:27:06 10° SSE 23:32:07 64° ENE 23:37:08 10° N visible
15 Dec 6.2 01:09:52 10° WSW 01:11:29 11° W 01:13:08 10° WNW visible
15 Dec 5.2 11:40:13 10° NE 11:44:39 30° E 11:49:03 10° SSE visible
15 Dec 3.9 22:51:19 10° SE 22:55:33 27° ENE 22:59:47 10° NNE visible
16 Dec 5.0 00:30:06 10° SSW 00:34:26 28° W 00:38:48 10° NW visible
16 Dec 6.2 11:05:37 10° ENE 11:07:36 12° E 11:09:35 10° ESE visible
16 Dec 3.3 23:52:32 10° S 23:57:34 69° WSW 00:02:38 10° NNW visible
17 Dec 3.9 12:05:14 10° NNE 12:10:14 56° E 12:15:11 10° S visible
17 Dec 3.2 23:16:00 10° SSE 23:20:52 49° ENE 23:25:46 10° N visible
18 Dec 5.9 00:57:12 10° SW 01:00:07 15° W 01:03:02 10° WNW visible
18 Dec 5.6 11:29:18 10° NE 11:33:18 23° E 11:37:17 10° SSE visible
